This is the latest recevied weather packets stored in our database for station/object N5KJT. If no packets are shown the sender has not sent any weather packets the latest 10 day(s).
| Time | Temp. | Humidity | Pressure | Rain* | Wind** | Luminosity | Snow |
|---|---|---|---|---|---|---|---|
| 1787877015 | 26.11° C | 40% | 1025.3 hPa | 0 mm | - | 185 W/m² | - |
| 1787876715 | 26.11° C | 41% | 1025.3 hPa | 0 mm | - | 297 W/m² | - |
| 1787876415 | 26.11° C | 42% | 1025.3 hPa | 0 mm | - | 327 W/m² | - |
| 1787876115 | 25.56° C | 43% | 1025.4 hPa | 0 mm | - | 294 W/m² | - |
| 1787875815 | 25.56° C | 42% | 1025.4 hPa | 0 mm | - | 229 W/m² | - |
| 1787875515 | 25.56° C | 43% | 1025.5 hPa | 0 mm | - | 69 W/m² | - |
| 1787875215 | 26.11° C | 41% | 1025.6 hPa | 0 mm | - | 71 W/m² | - |
| 1787874915 | 26.11° C | 41% | 1025.8 hPa | 0 mm | - | 189 W/m² | - |
| 1787874615 | 25.56° C | 42% | 1025.8 hPa | 0 mm | - | 494 W/m² | - |
| 1787874315 | 25.56° C | 43% | 1025.8 hPa | 0 mm | - | 361 W/m² | - |
| 1787874015 | 25.56° C | 45% | 1025.8 hPa | 0 mm | - | 156 W/m² | - |
| 1787873715 | 25.56° C | 44% | 1025.9 hPa | 0 mm | - | 134 W/m² | - |
| 1787873415 | 25° C | 43% | 1025.8 hPa | 0 mm | - | 119 W/m² | - |
| 1787873115 | 25° C | 43% | 1025.8 hPa | 0 mm | - | 128 W/m² | - |
| 1787872817 | 25° C | 44% | 1025.8 hPa | 0 mm | - | 139 W/m² | - |
| 1787872517 | 25° C | 44% | 1025.9 hPa | 0 mm | - | 140 W/m² | - |
| 1787872217 | 25.56° C | 42% | 1025.9 hPa | 0 mm | - | 130 W/m² | - |
| 1787871917 | 25.56° C | 42% | 1025.9 hPa | 0 mm | - | 129 W/m² | - |
| 1787871616 | 26.11° C | 40% | 1026 hPa | 0 mm | - | 149 W/m² | - |
| 1787871317 | 26.11° C | 38% | 1026.2 hPa | 0 mm | - | 152 W/m² | - |
| 1787871017 | 26.67° C | 38% | 1026.2 hPa | 0 mm | - | 146 W/m² | - |
| 1787870716 | 26.67° C | 38% | 1026.3 hPa | 0 mm | - | 152 W/m² | - |
| 1787870417 | 26.67° C | 37% | 1026.1 hPa | 0 mm | - | 209 W/m² | - |
| 1787870116 | 27.22° C | 36% | 1026.1 hPa | 0 mm | - | 216 W/m² | - |
| 1787869817 | 27.22° C | 35% | 1026 hPa | 0 mm | - | 244 W/m² | - |
* Rain latest hour (hover to see other rain measurements)
** Current wind speed in m/s (hover to see current wind gust speed)